Time,TemperatureF,DewpointF,PressureIn,WindDirection,WindDirectionDegrees,WindSpeedMPH,WindSpeedGustMPH,Humidity,HourlyPrecipIn,Conditions,Clouds,dailyrainin,SoftwareType,DateUTC
2013-04-12 00:02:00,36.0,31.0,30.11,NNE,23,5.0,-999.0,83,-99.99,,,-99.99,,2013-04-12 06:02:00,
2013-04-12 00:12:00,36.0,31.0,30.11,NNE,23,5.0,-999.0,83,-99.99,,,-99.99,,2013-04-12 06:12:00,
2013-04-12 00:22:00,35.0,31.0,30.11,NNE,15,5.0,-999.0,84,-99.99,,,-99.99,,2013-04-12 06:22:00,
2013-04-12 00:32:00,35.0,31.0,30.10,NNE,28,6.0,-999.0,84,-99.99,,,-99.99,,2013-04-12 06:32:00,
2013-04-12 00:42:00,35.0,31.0,30.10,NNE,28,6.0,-999.0,84,-99.99,,,-99.99,,2013-04-12 06:42:00,
2013-04-12 00:52:00,35.0,30.0,30.11,NNE,28,2.0,-999.0,83,-99.99,,,-99.99,,2013-04-12 06:52:00,
2013-04-12 01:01:00,35.0,31.0,30.11,NE,52,0.0,-999.0,85,-99.99,,,-99.99,,2013-04-12 07:01:00,
2013-04-12 01:11:00,35.0,31.0,30.11,NE,52,0.0,-999.0,85,-99.99,,,-99.99,,2013-04-12 07:11:00,
2013-04-12 01:22:00,35.0,31.0,30.11,NNE,32,0.0,-999.0,84,-99.99,,,-99.99,,2013-04-12 07:22:00,
2013-04-12 01:32:00,35.0,31.0,30.12,NNE,26,0.0,-999.0,85,-99.99,,,-99.99,,2013-04-12 07:32:00,
2013-04-12 01:42:00,35.0,31.0,30.12,NNE,26,0.0,-999.0,85,-99.99,,,-99.99,,2013-04-12 07:42:00,
2013-04-12 01:52:00,35.0,31.0,30.12,NNE,24,0.0,-999.0,84,-99.99,,,-99.99,,2013-04-12 07:52:00,
2013-04-12 02:02:00,35.0,31.0,30.12,WNW,299,0.0,-999.0,85,-99.99,,,-99.99,,2013-04-12 08:02:00,
2013-04-12 02:11:00,35.0,31.0,30.12,WNW,299,0.0,-999.0,85,-99.99,,,-99.99,,2013-04-12 08:11:00,
2013-04-12 02:22:00,35.0,31.0,30.11,North,355,0.0,-999.0,86,-99.99,,,-99.99,,2013-04-12 08:22:00,
2013-04-12 02:32:00,35.0,32.0,30.11,NNE,16,1.0,-999.0,87,-99.99,,,-99.99,,2013-04-12 08:32:00,
2013-04-12 02:42:00,35.0,32.0,30.11,NNE,16,1.0,-999.0,87,-99.99,,,-99.99,,2013-04-12 08:42:00,
2013-04-12 02:52:00,35.0,32.0,30.11,NNE,16,0.0,-999.0,87,-99.99,,,-99.99,,2013-04-12 08:52:00,
2013-04-12 03:02:00,35.0,32.0,30.10,NNW,347,0.0,-999.0,87,-99.99,,,-99.99,,2013-04-12 09:02:00,
2013-04-12 03:11:00,35.0,32.0,30.10,NNW,347,0.0,-999.0,87,-99.99,,,-99.99,,2013-04-12 09:11:00,
2013-04-12 03:22:00,35.0,32.0,30.10,NNW,341,0.0,-999.0,88,-99.99,,,-99.99,,2013-04-12 09:22:00,
2013-04-12 03:32:00,35.0,32.0,30.10,NNW,343,2.0,-999.0,88,-99.99,,,-99.99,,2013-04-12 09:32:00,
2013-04-12 03:42:00,35.0,32.0,30.10,NNW,343,2.0,-999.0,88,-99.99,,,-99.99,,2013-04-12 09:42:00,
2013-04-12 03:52:00,35.0,32.0,30.11,NW,314,5.0,-999.0,88,-99.99,,,-99.99,,2013-04-12 09:52:00,
2013-04-12 04:02:00,35.0,32.0,30.11,NW,314,5.0,-999.0,88,-99.99,,,-99.99,,2013-04-12 10:02:00,
2013-04-12 04:12:00,35.0,32.0,30.11,NW,314,5.0,-999.0,88,-99.99,,,-99.99,,2013-04-12 10:12:00,
2013-04-12 04:22:00,32.0,30.0,30.10,ENE,61,3.0,-999.0,91,-99.99,,,-99.99,,2013-04-12 10:22:00,
2013-04-12 04:33:00,32.0,30.0,30.10,NE,56,2.0,-999.0,92,-99.99,,,-99.99,,2013-04-12 10:33:00,
2013-04-12 04:42:00,32.0,30.0,30.10,NE,56,2.0,-999.0,92,-99.99,,,-99.99,,2013-04-12 10:42:00,
2013-04-12 04:52:00,32.0,30.0,30.11,NE,39,3.0,-999.0,92,-99.99,,,-99.99,,2013-04-12 10:52:00,
2013-04-12 05:02:00,32.0,30.0,30.10,NE,34,7.0,-999.0,93,-99.99,,,-99.99,,2013-04-12 11:02:00,
2013-04-12 05:12:00,32.0,30.0,30.10,NE,34,7.0,-999.0,93,-99.99,,,-99.99,,2013-04-12 11:12:00,
2013-04-12 05:22:00,32.0,30.0,30.11,NE,36,8.0,-999.0,93,-99.99,,,-99.99,,2013-04-12 11:22:00,
2013-04-12 05:32:00,32.0,30.0,30.11,NE,37,7.0,-999.0,93,-99.99,,,-99.99,,2013-04-12 11:32:00,
2013-04-12 05:42:00,32.0,30.0,30.11,NE,37,7.0,-999.0,93,-99.99,,,-99.99,,2013-04-12 11:42:00,
2013-04-12 05:52:00,32.0,30.0,30.11,North,355,6.0,-999.0,93,-99.99,,,-99.99,,2013-04-12 11:52:00,
2013-04-12 06:02:00,33.0,31.0,30.11,NE,34,8.0,-999.0,93,-99.99,,,-99.99,,2013-04-12 12:02:00,
2013-04-12 06:12:00,33.0,31.0,30.11,NE,34,8.0,-999.0,93,-99.99,,,-99.99,,2013-04-12 12:12:00,
2013-04-12 06:22:00,33.0,31.0,30.11,NE,36,10.0,-999.0,91,-99.99,,,-99.99,,2013-04-12 12:22:00,
2013-04-12 06:32:00,33.0,31.0,30.11,NNE,24,9.0,-999.0,91,-99.99,,,-99.99,,2013-04-12 12:32:00,
2013-04-12 06:42:00,33.0,31.0,30.11,NNE,24,9.0,-999.0,91,-99.99,,,-99.99,,2013-04-12 12:42:00,
2013-04-12 06:52:00,32.0,29.0,30.12,North,9,13.0,-999.0,89,-99.99,,,-99.99,,2013-04-12 12:52:00,
2013-04-12 07:02:00,31.0,28.0,30.12,NNE,29,15.0,-999.0,88,-99.99,,,-99.99,,2013-04-12 13:02:00,
2013-04-12 07:11:00,31.0,28.0,30.12,NNE,29,15.0,-999.0,88,-99.99,,,-99.99,,2013-04-12 13:11:00,
2013-04-12 07:21:00,31.0,28.0,30.13,North,9,12.0,-999.0,88,-99.99,,,-99.99,,2013-04-12 13:21:00,
2013-04-12 07:32:00,31.0,27.0,30.13,North,360,17.0,-999.0,86,-99.99,,,-99.99,,2013-04-12 13:32:00,
2013-04-12 07:42:00,31.0,27.0,30.13,North,360,17.0,-999.0,86,-99.99,,,-99.99,,2013-04-12 13:42:00,
2013-04-12 07:52:00,31.0,27.0,30.14,NNE,33,18.0,-999.0,85,-99.99,,,-99.99,,2013-04-12 13:52:00,
2013-04-12 08:02:00,31.0,27.0,30.16,NNE,31,19.0,-999.0,84,-99.99,,,-99.99,,2013-04-12 14:02:00,
2013-04-12 08:12:00,31.0,27.0,30.16,NNE,31,19.0,-999.0,84,-99.99,,,-99.99,,2013-04-12 14:12:00,
2013-04-12 08:22:00,31.0,27.0,30.16,NE,40,14.0,-999.0,84,-99.99,,,-99.99,,2013-04-12 14:22:00,
2013-04-12 08:32:00,32.0,27.0,30.16,NNE,26,14.0,-999.0,83,-99.99,,,-99.99,,2013-04-12 14:32:00,
2013-04-12 08:42:00,32.0,27.0,30.16,NNE,26,14.0,-999.0,83,-99.99,,,-99.99,,2013-04-12 14:42:00,
2013-04-12 08:52:00,33.0,28.0,30.16,NNE,28,16.0,-999.0,80,-99.99,,,-99.99,,2013-04-12 14:52:00,
2013-04-12 09:02:00,32.0,27.0,30.17,NNE,25,15.0,-999.0,81,-99.99,,,-99.99,,2013-04-12 15:02:00,
2013-04-12 09:12:00,32.0,27.0,30.17,NNE,25,15.0,-999.0,81,-99.99,,,-99.99,,2013-04-12 15:12:00,
2013-04-12 09:22:00,32.0,27.0,30.18,NE,36,15.0,-999.0,80,-99.99,,,-99.99,,2013-04-12 15:22:00,
2013-04-12 09:33:00,32.0,26.0,30.18,NE,40,14.0,-999.0,79,-99.99,,,-99.99,,2013-04-12 15:33:00,
2013-04-12 09:43:00,32.0,26.0,30.18,NE,40,14.0,-999.0,79,-99.99,,,-99.99,,2013-04-12 15:43:00,
2013-04-12 09:53:00,33.0,27.0,30.19,NNE,17,11.0,-999.0,78,-99.99,,,-99.99,,2013-04-12 15:53:00,
2013-04-12 10:03:00,34.0,27.0,30.19,NNE,25,13.0,-999.0,76,-99.99,,,-99.99,,2013-04-12 16:03:00,
2013-04-12 10:12:00,34.0,27.0,30.19,NNE,25,13.0,-999.0,76,-99.99,,,-99.99,,2013-04-12 16:12:00,
2013-04-12 10:22:00,34.0,27.0,30.20,NNE,15,14.0,-999.0,75,-99.99,,,-99.99,,2013-04-12 16:22:00,
2013-04-12 10:32:00,35.0,27.0,30.20,NNE,14,10.0,-999.0,71,-99.99,,,-99.99,,2013-04-12 16:32:00,
2013-04-12 10:42:00,35.0,27.0,30.20,NNE,14,10.0,-999.0,71,-99.99,,,-99.99,,2013-04-12 16:42:00,
2013-04-12 10:53:00,36.0,26.0,30.21,NNE,17,11.0,-999.0,68,-99.99,,,-99.99,,2013-04-12 16:53:00,
2013-04-12 11:02:00,36.0,26.0,30.21,NNE,17,11.0,-999.0,68,-99.99,,,-99.99,,2013-04-12 17:02:00,
2013-04-12 11:12:00,36.0,26.0,30.21,NNE,17,11.0,-999.0,68,-99.99,,,-99.99,,2013-04-12 17:12:00,
2013-04-12 11:22:00,38.0,26.0,30.22,NE,37,8.0,-999.0,62,-99.99,,,-99.99,,2013-04-12 17:22:00,
2013-04-12 11:32:00,38.0,26.0,30.21,NNE,25,6.0,-999.0,62,-99.99,,,-99.99,,2013-04-12 17:32:00,
2013-04-12 11:46:00,38.0,26.0,30.21,NNE,25,6.0,-999.0,62,-99.99,,,-99.99,,2013-04-12 17:46:00,
2013-04-12 12:01:00,39.0,25.0,30.21,NNE,19,6.0,-999.0,58,-99.99,,,-99.99,,2013-04-12 18:01:00,
2013-04-12 12:13:00,41.0,28.0,30.20,NE,55,6.0,-999.0,59,-99.99,,,-99.99,,2013-04-12 18:13:00,
2013-04-12 12:25:00,41.0,26.0,30.19,ENE,58,6.0,-999.0,54,-99.99,,,-99.99,,2013-04-12 18:25:00,
2013-04-12 13:32:00,43.0,27.0,30.16,ENE,59,2.0,-999.0,53,-99.99,,,-99.99,,2013-04-12 19:32:00,
2013-04-12 13:42:00,43.0,27.0,30.16,ENE,59,2.0,-999.0,53,-99.99,,,-99.99,,2013-04-12 19:42:00,
2013-04-12 13:52:00,44.0,26.0,30.15,ENE,59,3.0,-999.0,49,-99.99,,,-99.99,,2013-04-12 19:52:00,
2013-04-12 14:01:00,43.0,26.0,30.15,East,85,2.0,-999.0,50,-99.99,,,-99.99,,2013-04-12 20:01:00,
2013-04-12 14:11:00,43.0,26.0,30.15,East,85,2.0,-999.0,50,-99.99,,,-99.99,,2013-04-12 20:11:00,
2013-04-12 14:22:00,44.0,28.0,30.15,ENE,57,2.0,-999.0,52,-99.99,,,-99.99,,2013-04-12 20:22:00,
2013-04-12 14:32:00,44.0,27.0,30.14,NE,44,3.0,-999.0,51,-99.99,,,-99.99,,2013-04-12 20:32:00,
2013-04-12 14:42:00,44.0,27.0,30.14,NE,44,3.0,-999.0,51,-99.99,,,-99.99,,2013-04-12 20:42:00,
2013-04-12 14:52:00,44.0,27.0,30.14,ENE,76,5.0,-999.0,50,-99.99,,,-99.99,,2013-04-12 20:52:00,
2013-04-12 15:01:00,46.0,28.0,30.13,ESE,114,2.0,-999.0,49,-99.99,,,-99.99,,2013-04-12 21:01:00,
2013-04-12 15:11:00,46.0,28.0,30.13,ESE,114,2.0,-999.0,49,-99.99,,,-99.99,,2013-04-12 21:11:00,
2013-04-12 15:21:00,45.0,27.0,30.13,ENE,65,1.0,-999.0,48,-99.99,,,-99.99,,2013-04-12 21:21:00,
2013-04-12 15:32:00,46.0,27.0,30.11,East,81,0.0,-999.0,48,-99.99,,,-99.99,,2013-04-12 21:32:00,
2013-04-12 15:42:00,46.0,27.0,30.11,East,81,0.0,-999.0,48,-99.99,,,-99.99,,2013-04-12 21:42:00,
2013-04-12 15:52:00,44.0,27.0,30.11,NE,47,6.0,-999.0,50,-99.99,,,-99.99,,2013-04-12 21:52:00,
2013-04-12 16:02:00,45.0,27.0,30.10,ENE,74,3.0,-999.0,49,-99.99,,,-99.99,,2013-04-12 22:02:00,
2013-04-12 16:12:00,45.0,27.0,30.10,ENE,74,3.0,-999.0,49,-99.99,,,-99.99,,2013-04-12 22:12:00,
2013-04-12 16:22:00,43.0,26.0,30.10,South,178,5.0,-999.0,51,-99.99,,,-99.99,,2013-04-12 22:22:00,
2013-04-12 16:32:00,46.0,29.0,30.09,ESE,111,3.0,-999.0,51,-99.99,,,-99.99,,2013-04-12 22:32:00,
2013-04-12 16:42:00,46.0,29.0,30.09,ESE,111,3.0,-999.0,51,-99.99,,,-99.99,,2013-04-12 22:42:00,
2013-04-12 16:52:00,46.0,29.0,30.09,ESE,111,4.0,-999.0,51,-99.99,,,-99.99,,2013-04-12 22:52:00,
2013-04-12 17:03:00,44.0,27.0,30.08,SE,133,7.0,-999.0,51,-99.99,,,-99.99,,2013-04-12 23:03:00,
2013-04-12 17:12:00,44.0,27.0,30.08,SE,133,7.0,-999.0,51,-99.99,,,-99.99,,2013-04-12 23:12:00,
2013-04-12 17:22:00,45.0,28.0,30.07,South,169,3.0,-999.0,52,-99.99,,,-99.99,,2013-04-12 23:22:00,
2013-04-12 17:32:00,45.0,27.0,30.06,SE,137,5.0,-999.0,48,-99.99,,,-99.99,,2013-04-12 23:32:00,
2013-04-12 17:42:00,45.0,27.0,30.06,SE,137,5.0,-999.0,48,-99.99,,,-99.99,,2013-04-12 23:42:00,
2013-04-12 17:52:00,45.0,27.0,30.06,South,180,3.0,-999.0,49,-99.99,,,-99.99,,2013-04-12 23:52:00,
2013-04-12 18:01:00,46.0,28.0,30.06,ESE,115,1.0,-999.0,49,-99.99,,,-99.99,,2013-04-13 00:01:00,
2013-04-12 18:12:00,46.0,28.0,30.06,ESE,115,1.0,-999.0,49,-99.99,,,-99.99,,2013-04-13 00:12:00,
2013-04-12 18:21:00,45.0,26.0,30.05,SE,128,2.0,-999.0,47,-99.99,,,-99.99,,2013-04-13 00:21:00,
2013-04-12 18:32:00,45.0,26.0,30.04,SE,137,1.0,-999.0,47,-99.99,,,-99.99,,2013-04-13 00:32:00,
2013-04-12 18:42:00,45.0,26.0,30.04,SE,137,1.0,-999.0,47,-99.99,,,-99.99,,2013-04-13 00:42:00,
2013-04-12 18:52:00,45.0,27.0,30.04,SE,131,5.0,-999.0,48,-99.99,,,-99.99,,2013-04-13 00:52:00,
2013-04-12 19:01:00,45.0,27.0,30.04,East,90,2.0,-999.0,48,-99.99,,,-99.99,,2013-04-13 01:01:00,
2013-04-12 19:12:00,45.0,27.0,30.04,East,90,2.0,-999.0,48,-99.99,,,-99.99,,2013-04-13 01:12:00,
2013-04-12 19:22:00,44.0,26.0,30.03,East,95,4.0,-999.0,49,-99.99,,,-99.99,,2013-04-13 01:22:00,
2013-04-12 19:31:00,44.0,26.0,30.03,ESE,107,4.0,-999.0,48,-99.99,,,-99.99,,2013-04-13 01:31:00,
2013-04-12 19:42:00,44.0,26.0,30.03,ESE,107,4.0,-999.0,48,-99.99,,,-99.99,,2013-04-13 01:42:00,
2013-04-12 19:52:00,44.0,27.0,30.03,East,95,3.0,-999.0,50,-99.99,,,-99.99,,2013-04-13 01:52:00,
2013-04-12 20:01:00,43.0,26.0,30.03,ENE,78,0.0,-999.0,51,-99.99,,,-99.99,,2013-04-13 02:01:00,
2013-04-12 20:11:00,43.0,26.0,30.03,ENE,78,0.0,-999.0,51,-99.99,,,-99.99,,2013-04-13 02:11:00,
2013-04-12 20:22:00,42.0,27.0,30.03,ENE,76,0.0,-999.0,54,-99.99,,,-99.99,,2013-04-13 02:22:00,
2013-04-12 20:32:00,41.0,28.0,30.02,ENE,72,5.0,-999.0,60,-99.99,,,-99.99,,2013-04-13 02:32:00,
2013-04-12 20:42:00,41.0,28.0,30.02,ENE,72,5.0,-999.0,60,-99.99,,,-99.99,,2013-04-13 02:42:00,
2013-04-12 20:53:00,40.0,29.0,30.03,East,82,2.0,-999.0,64,-99.99,,,-99.99,,2013-04-13 02:53:00,
2013-04-12 21:01:00,39.0,29.0,30.03,East,90,3.0,-999.0,66,-99.99,,,-99.99,,2013-04-13 03:01:00,
2013-04-12 21:11:00,39.0,29.0,30.03,East,90,3.0,-999.0,66,-99.99,,,-99.99,,2013-04-13 03:11:00,
2013-04-12 21:22:00,39.0,28.0,30.02,East,79,4.0,-999.0,65,-99.99,,,-99.99,,2013-04-13 03:22:00,
2013-04-12 21:32:00,38.0,28.0,30.02,ENE,71,6.0,-999.0,67,-99.99,,,-99.99,,2013-04-13 03:32:00,
2013-04-12 21:42:00,38.0,28.0,30.02,ENE,71,6.0,-999.0,67,-99.99,,,-99.99,,2013-04-13 03:42:00,
2013-04-12 21:53:00,38.0,28.0,30.02,ENE,74,7.0,-999.0,68,-99.99,,,-99.99,,2013-04-13 03:53:00,
2013-04-12 22:02:00,38.0,28.0,30.02,East,81,7.0,-999.0,68,-99.99,,,-99.99,,2013-04-13 04:02:00,
2013-04-12 22:12:00,38.0,28.0,30.02,East,81,7.0,-999.0,68,-99.99,,,-99.99,,2013-04-13 04:12:00,
2013-04-12 22:22:00,38.0,28.0,30.02,East,81,7.0,-999.0,68,-99.99,,,-99.99,,2013-04-13 04:22:00,
2013-04-12 22:32:00,37.0,28.0,30.01,ENE,78,7.0,-999.0,69,-99.99,,,-99.99,,2013-04-13 04:32:00,
2013-04-12 22:42:00,37.0,28.0,30.01,ENE,78,7.0,-999.0,69,-99.99,,,-99.99,,2013-04-13 04:42:00,
2013-04-12 22:53:00,36.0,28.0,30.01,ENE,57,7.0,-999.0,71,-99.99,,,-99.99,,2013-04-13 04:53:00,
2013-04-12 23:02:00,36.0,28.0,30.00,ENE,63,7.0,-999.0,72,-99.99,,,-99.99,,2013-04-13 05:02:00,
2013-04-12 23:12:00,36.0,28.0,30.00,ENE,63,7.0,-999.0,72,-99.99,,,-99.99,,2013-04-13 05:12:00,
2013-04-12 23:22:00,36.0,28.0,30.00,ENE,63,7.0,-999.0,72,-99.99,,,-99.99,,2013-04-13 05:22:00,
2013-04-12 23:31:00,33.0,26.0,29.99,NE,50,5.0,-999.0,76,-99.99,,,-99.99,,2013-04-13 05:31:00,
2013-04-12 23:42:00,33.0,26.0,29.99,NE,50,5.0,-999.0,76,-99.99,,,-99.99,,2013-04-13 05:42:00,
2013-04-12 23:52:00,33.0,26.0,29.99,NE,50,5.0,-999.0,76,-99.99,,,-99.99,,2013-04-13 05:52:00,